Voltar ao catálogo

STARLINK-31275

AtivoComunicaçõesVLEO
NORAD 59197·PAYLOAD·🇺🇸 United States

Lançado Mar 10, 2024 de Cape Canaveral Space Force Station

Loading…

Próximas Passagens (próximas 24 horas)

TLE

AtualizadoSource: CelesTrak SupGP

Época: Sep 15, 2026, 02:50 UTC

1 59197C 24045V   26258.11854167  .00025319  00000+0  91680-3 0  2586
2 59197  43.0013 102.9890 0001419 274.5414 288.9275 15.27574496    17

Acompanhe STARLINK-31275 em tempo real com AllMySat

Download on the App Store